Location: Chassagnes
(44.4047°N, 4.1657°E)
Time: 13:04:14
(UTC+00:00)

GENESIS II - Pass Details

Date: 27 October 2020
Orbit: 490 x 537 km, 64.5° (Epoch: 23 November)

Event Time Altitude Azimuth Distance (km) Brightness Sun altitude
Rises 17:07:58 0° 215° (SW) 2,668 8.7 -5.8°
Reaches altitude 10° 17:10:08 10° 216° (SW) 1,785 7.7 -6.1°
Maximum altitude 17:14:09 84° 302° (WNW) 545 4.3 -6.8°
Drops below altitude 10° 17:18:13 10° 34° (NE) 1,800 6.5 -7.6°
Enters shadow 17:19:56 - 35° (NE) 2,495 7.2 -7.9°
